星链-6322 (STARLINK-6322 )

导读

STARLINK-6322是美国SpaceX星链星座的成员,于2023年7月16日发射,属于大规模低轨宽带通信卫星网络。星链星座旨在为全球提供高速宽带互联网接入,该卫星具备自主避撞能力,搭载霍尔推进器,服役寿命约5-7年,退役后将主动离轨再入大气层烧毁,助力星链实现全球无缝覆盖的网络服务。

基本信息
目录编号:
57337
目录名称:
STARLINK-6322
国际标识:
2023-099K
轨道中心:
EARTH
卫星名称:
星链-6322
卫星全名:
星链-6322 (STARLINK-6322 )
卫星状态:
在轨 (已飞行1154 天)
发射日期:
2023-07-16 UTC
国别 :
美国 (US)
星等 :
--
该卫星已列入 空间交会检测服务 Space Conjunction Data Service (SCDS) ,当前飞行风险评估等级: 高风险
轨道信息
数据来源 国际轨道数据 AOE轨道数据
星历时间 2026-09-12T10:25:50+0800
16小时前
查看轨道信息
2026-09-06T07:00:00+0800
6天前
查看轨道信息
半长轴 6861.205km 6861.184km
偏心率 0.0001069 0.0001483
轨道倾角 43.002° 43.003°
近地点辐角 269.716° 255.963°
升交点赤经 279.819° 314.514°
平近点角 90.357° 122.746°
近地点 482.334km 482.029km
远地点 483.802km 484.065km
周期 94.267分钟 94.267分钟
每日圈数 15.275739 15.27581
详细信息
固有亮度:
5
最大亮度:
2.5
卫星平台:
Starlink v1.5
覆盖范围:
全球
运营商:
太空探索技术公司
运营商所在国:
美国
制造商(研发单位):
太空探索技术公司
制造商所在国:
美国
使用方式:
暂无
卫星简介
星链(Starlink)计划是由太空探索技术公司(SpaceX)提出的一个巨型低轨卫星互联网星座项目,计划在2019年至2024年间在太空搭建由约1.2万颗卫星组成的“星链”网络,其中1584颗将部署在地球上空550千米处的近地轨道,并从2020年开始工作。该卫星仍在工作。
2D轨道图
3D轨道图
轨道高度分析图
轨道倾角分析图
轨道综合分析图
查看轨道综合分析图
交会数据列表
事件ID 空间交会对象 最接近时刻(TCA) 交会距离 交会风险概率(CRP) 交会风险指数(CRI) 操作
CDM_260911-013205-733706-215424
2026-09-11T
01:32:52+0000
2.166 km
极远距离
1.570861E-6 低风险 0.39
与全量物体交会距离演化趋势
与全量物体交会风险概率演化趋势